GEFSMW_con_probscp_042.txt.gz
Probability
87 84 79 77 81 84 89 93 94 94 96 98 98 98 98 96 94 91 89 87 87 87 86 84 87 86 77 65 52 45 40 33 26 20 12 5 2 0 0 0 1 0 0
84 83 81 82 86 89 91 93 94 94 94 95 96 96 95 93 92 91 89 87 87 87 85 84 86 85 79 68 59 52 44 36 30 23 14 8 5 2 1 1 1 0 0
74 76 78 81 87 92 93 93 93 92 93 94 94 94 92 90 91 91 90 88 87 85 83 81 81 81 77 72 65 57 48 40 35 29 22 16 11 6 3 1 1 0 0
53 55 60 67 76 83 86 88 89 90 91 93 93 91 91 90 90 90 89 87 85 83 80 76 74 73 71 68 64 56 46 38 35 33 31 25 17 10 4 1 1 0 0
26 28 33 40 50 60 67 74 81 85 88 91 91 91 91 90 89 88 86 84 83 81 77 71 67 66 63 61 56 49 39 33 32 32 31 26 18 10 4 1 0 0 0
8 9 11 15 24 35 44 56 69 76 80 85 87 89 90 90 89 87 84 83 83 80 74 66 63 60 56 54 50 41 33 29 28 27 24 19 12 7 3 1 0 0 0
1 1 2 3 9 17 26 39 55 65 69 74 79 83 86 88 88 88 87 85 84 79 71 63 59 55 49 45 41 34 27 23 19 18 15 10 5 3 2 1 0 0 0
0 0 0 1 3 6 13 24 38 52 61 67 73 79 84 86 87 88 88 87 84 76 66 57 51 46 38 31 28 23 18 13 9 7 6 3 1 1 1 1 0 0 0
0 0 0 0 0 1 4 12 24 37 49 58 65 71 77 81 83 82 80 80 76 66 55 45 37 31 25 19 15 11 7 5 4 2 1 0 0 0 1 1 1 1 1
0 0 0 1 0 0 1 5 13 23 33 42 50 55 62 69 71 68 63 59 54 46 37 29 22 18 14 9 7 5 4 3 3 2 1 0 0 1 1 1 1 2 2
0 0 0 0 0 0 1 3 7 12 18 24 30 34 41 48 52 49 41 32 26 23 19 14 12 10 7 4 3 3 2 2 1 1 0 0 0 1 1 1 1 2 2
0 0 0 0 0 0 0 2 4 6 9 11 14 17 20 25 29 28 22 13 8 7 6 5 5 5 3 1 1 1 1 1 0 0 0 0 0 1 1 0 1 1 1
0 0 0 0 0 0 0 0 1 2 3 3 5 6 6 7 9 10 8 4 2 1 1 1 1 1 1 0 0 0 0 0 0 0 0 0 0 0 0 0 0 0 0
0 0 0 0 0 0 0 0 0 0 0 1 1 1 1 1 1 1 1 1 0 0 0 0 0 0 0 0 0 0 0 0 0 0 0 0 0 0 0 0 0 0 0
0 0 0 0 0 0 0 0 0 0 0 0 0 0 0 0 0 0 0 0 0 0 0 0 0 0 0 0 0 0 0 0 0 0 0 0 0 0 0 0 0 0 0
0 0 0 0 0 0 0 0 0 0 0 0 0 0 0 0 0 0 0 0 0 0 0 0 0 0 0 0 0 0 0 0 0 0 0 0 0 0 0 0 0 0 0
0 0 0 0 0 0 0 0 0 0 0 0 0 0 0 0 0 0 0 0 0 0 0 0 0 0 0 0 0 0 0 0 0 0 0 0 0 0 0 0 0 0 0
0 0 0 0 0 0 0 0 0 0 0 0 0 0 0 0 0 0 0 0 0 0 0 0 0 0 0 0 0 0 0 0 0 0 0 0 0 0 0 0 0 0 0
0 0 0 0 0 0 0 0 0 0 0 0 0 0 0 0 0 0 0 0 0 0 0 0 0 0 0 0 0 0 0 0 0 0 0 0 0 0 0 0 0 0 0
1 0 0 0 0 0 0 0 0 0 0 0 0 0 0 0 0 0 0 0 0 0 0 0 0 0 0 0 0 0 0 0 0 0 0 0 0 0 0 0 0 0 0
1 1 1 0 0 0 0 0 0 0 0 0 0 0 0 0 0 0 0 0 0 0 0 0 0 0 0 0 0 0 0 0 0 0 0 0 0 0 0 0 0 0 0
2 2 2 1 0 0 0 0 0 0 0 0 0 0 0 0 0 0 0 0 0 0 0 0 0 0 0 0 0 0 0 0 0 0 0 0 0 0 0 0 0 0 0
4 5 3 1 1 0 0 0 0 0 0 0 0 0 0 0 0 0 0 0 0 0 0 0 0 0 0 0 0 0 0 0 0 0 0 0 0 0 0 0 0 0 0
8 9 8 5 4 3 1 0 0 0 0 0 0 0 0 0 0 0 0 0 0 0 0 0 0 0 0 0 0 0 0 0 0 0 0 0 0 0 0 0 0 0 0
10 13 13 10 8 6 4 1 0 0 0 0 0 0 0 0 0 0 0 0 0 0 0 0 0 0 0 0 0 0 0 0 0 0 0 0 0 0 0 0 0 0 0
11 13 14 11 8 7 6 2 1 0 0 0 0 0 0 0 0 0 0 0 0 0 0 0 0 0 0 0 0 0 0 0 0 0 0 0 0 0 0 0 0 0 0

GEFSMW_con_probscp_048.txt.gz
Probability
84 87 91 94 96 98 100 100 100 100 100 100 100 100 100 100 100 100 99 100 100 100 100 100 100 100 99 97 95 91 87 82 76 69 61 53 46 37 38 48 50 41 34
84 84 86 88 90 94 97 99 100 99 99 100 100 100 100 100 100 100 99 99 100 100 100 100 100 100 99 97 94 90 85 77 70 63 58 52 46 37 34 41 48 44 39
73 69 68 71 74 80 86 93 97 98 99 100 100 100 100 100 100 100 100 99 99 99 99 99 99 99 99 97 94 90 82 72 64 59 54 48 40 31 26 30 40 46 46
46 44 42 45 48 54 65 79 90 95 96 98 99 99 100 100 100 100 100 100 99 98 97 97 97 97 98 97 93 87 79 71 64 59 51 40 29 21 16 18 27 36 38
24 23 22 22 23 26 39 60 78 87 91 95 98 99 100 100 100 99 100 100 99 98 97 96 95 95 96 94 88 80 75 69 62 55 44 33 23 16 10 9 12 18 19
13 12 10 9 10 12 21 42 63 79 87 91 95 98 99 100 100 100 100 100 99 98 96 96 96 96 95 91 83 76 71 63 54 46 38 30 24 17 11 7 5 5 5
6 6 4 5 9 13 19 33 52 71 81 84 88 94 96 96 96 97 98 98 97 97 96 95 95 94 91 86 79 73 66 57 47 39 33 28 21 17 14 9 4 2 1
4 4 2 4 11 20 27 35 48 63 70 71 75 82 84 83 83 87 90 91 92 92 92 92 90 87 83 78 73 67 60 51 41 33 28 23 17 14 12 8 4 1 0
6 5 4 7 15 25 32 39 48 57 59 58 57 59 63 63 64 67 72 75 78 80 81 81 78 75 71 66 63 58 50 40 32 26 21 17 13 9 6 3 1 0 0
6 6 6 10 17 24 31 38 46 51 51 46 40 39 42 43 42 44 48 53 57 61 62 61 59 57 54 51 47 42 34 27 22 18 13 11 8 4 2 0 0 0 0
2 4 6 10 12 15 23 32 40 46 43 36 31 30 29 27 25 25 27 31 35 40 43 41 38 36 33 29 27 24 19 15 13 10 7 4 3 1 0 0 0 0 0
0 3 8 10 10 10 15 21 30 37 33 28 27 26 21 15 13 12 12 15 19 22 25 25 22 18 13 11 11 11 8 6 5 3 2 1 1 0 0 0 0 0 0
1 6 16 20 21 23 21 17 19 23 21 19 20 18 13 8 6 5 4 6 9 10 10 11 10 6 3 3 3 3 2 1 1 0 0 0 0 0 0 0 0 0 0
2 10 23 32 38 44 38 25 17 16 14 12 11 9 6 3 2 2 1 1 3 3 3 3 3 1 0 1 1 1 0 0 0 0 0 0 0 0 0 0 0 0 0
1 9 22 33 45 53 49 36 26 20 13 8 6 4 2 1 1 1 0 0 1 1 0 0 0 0 0 0 0 0 0 0 0 0 0 0 0 0 0 0 0 0 0
0 4 13 27 41 48 47 42 35 27 16 7 3 2 1 0 0 1 0 0 0 0 0 0 0 0 0 0 0 0 0 0 0 0 0 0 0 0 0 0 0 0 0
0 2 7 21 36 41 43 44 41 30 17 6 1 0 0 0 0 0 0 0 0 0 0 0 0 0 0 0 0 0 0 0 0 0 0 0 0 0 0 0 0 0 0
1 3 6 17 32 40 42 44 39 28 14 5 1 0 0 0 0 0 0 0 0 0 0 0 0 0 0 0 0 0 0 0 0 0 0 0 0 0 0 0 0 0 0
4 6 9 19 36 49 49 44 35 21 10 3 0 0 0 0 0 0 0 0 0 0 0 0 0 0 0 0 0 0 0 0 0 0 0 0 0 0 0 0 0 0 0
7 10 15 30 53 68 66 53 35 19 8 2 0 0 0 0 0 0 0 0 0 0 0 0 0 0 0 0 0 0 0 0 0 0 0 0 0 0 0 0 0 0 0
6 9 19 40 66 81 80 67 45 26 14 6 3 3 1 0 0 0 0 0 0 0 0 0 0 0 0 0 0 0 0 0 0 0 0 0 0 0 0 0 0 0 0
2 4 15 37 62 79 83 75 58 40 25 16 10 7 3 1 0 0 0 0 0 0 0 0 0 0 0 0 0 0 0 0 0 0 0 0 0 0 0 0 0 0 0
2 2 9 25 46 65 73 72 65 53 38 26 17 10 5 2 0 0 0 0 0 0 0 0 0 0 0 0 0 0 0 0 0 0 0 0 0 0 0 0 0 0 0
2 2 4 13 29 45 55 61 63 57 44 31 20 12 8 4 1 0 0 0 0 0 0 0 0 0 0 0 0 0 0 0 0 0 0 0 0 0 0 0 0 0 0
1 1 2 6 15 27 37 46 56 56 44 29 18 11 8 5 2 1 0 0 0 0 0 0 0 0 0 0 0 0 0 0 0 0 0 0 0 0 0 0 0 0 0
0 1 1 2 8 18 27 37 50 56 44 27 16 10 5 3 2 1 0 0 0 0 0 0 0 0 0 0 0 0 0 0 0 0 0 0 0 0 0 0 0 0 0

GEFSMW_con_probscp_054.txt.gz
Probability
75 71 65 62 60 60 61 63 66 69 71 75 79 83 84 87 90 91 87 81 78 81 86 88 86 83 81 77 70 59 47 40 35 28 18 10 4 5 7 8 7 7 8
66 61 55 49 46 45 47 51 56 58 59 61 69 77 81 83 85 87 87 84 82 83 85 86 86 84 81 75 66 56 48 40 35 29 20 11 5 4 6 7 6 6 7
50 45 38 32 28 27 30 35 39 39 38 40 51 64 73 76 77 79 81 82 82 81 83 85 85 83 81 74 64 56 51 43 35 29 21 11 4 2 2 3 3 3 4
32 29 23 17 16 18 22 28 29 25 22 24 31 42 52 57 60 61 63 66 68 71 77 82 82 81 79 75 67 59 53 47 39 30 20 11 4 1 1 0 0 1 1
16 15 12 10 11 17 25 31 29 22 18 16 16 18 24 30 33 35 37 39 43 50 59 67 72 74 74 72 67 60 53 47 40 31 22 13 6 3 2 1 1 2 1
7 8 9 9 12 20 30 34 30 23 19 15 9 5 7 10 12 14 16 18 21 25 32 42 50 56 60 61 60 57 52 44 37 31 24 16 10 6 3 3 3 3 3
5 7 9 10 14 22 28 27 22 18 18 15 8 3 2 2 3 5 6 7 8 10 14 20 27 34 39 44 48 51 48 40 35 30 23 17 12 6 3 3 3 3 2
6 7 9 10 15 20 20 17 13 13 15 14 9 3 1 0 0 1 1 2 3 4 5 8 13 18 23 29 36 40 39 35 30 25 20 16 11 6 3 3 2 1 1
5 6 6 8 12 14 12 9 9 10 12 11 9 5 2 0 0 0 0 0 1 1 1 3 6 10 13 18 24 28 28 25 21 17 14 12 9 5 2 1 1 0 0
3 3 3 4 6 7 6 6 7 7 7 8 8 6 2 0 0 0 0 0 0 0 0 1 3 5 7 10 15 18 17 14 10 8 8 7 6 4 3 1 0 0 0
1 1 1 1 2 3 3 5 6 4 3 4 6 5 2 0 0 0 0 0 0 0 0 0 1 2 4 7 10 11 9 6 3 3 3 4 3 3 2 1 0 0 0
0 0 0 0 0 1 2 4 5 3 1 2 4 4 1 0 0 0 0 0 0 0 0 0 0 2 4 5 7 6 3 1 0 1 2 2 1 1 1 0 0 0 0
0 0 0 0 0 0 1 3 5 4 1 2 4 3 1 0 0 0 0 0 0 0 0 0 0 1 2 3 4 2 1 0 0 1 1 1 0 0 0 0 0 0 0
0 0 0 0 0 0 0 1 3 4 2 2 3 2 0 0 0 0 0 0 0 0 0 0 0 0 1 1 2 1 0 0 0 0 0 0 0 0 0 0 0 0 0
0 0 0 0 0 0 0 0 1 3 2 2 3 2 1 0 0 0 0 0 0 0 0 0 0 0 0 1 1 1 0 0 0 0 0 0 0 0 0 0 0 0 0
0 0 0 0 0 0 0 0 1 1 1 1 2 2 1 0 0 0 0 0 0 0 0 0 0 0 0 0 0 0 0 0 0 0 0 0 0 0 0 0 0 0 0
0 0 0 0 0 0 0 0 0 0 0 0 1 1 1 1 0 0 0 0 0 0 0 0 0 0 0 0 0 0 0 0 0 0 0 0 0 0 0 0 0 0 0
0 0 0 0 0 0 0 0 0 0 0 0 0 1 1 1 0 0 0 0 0 0 0 0 0 0 0 0 0 0 0 0 0 0 0 0 0 0 0 0 0 0 0
0 0 0 0 0 0 0 0 0 0 0 0 0 0 0 0 0 0 0 0 0 0 0 0 0 0 0 0 0 0 0 0 0 0 0 0 0 0 0 0 0 0 0
0 0 0 0 0 0 0 0 0 0 0 0 0 0 0 0 0 0 0 0 0 0 0 0 0 0 0 0 0 0 0 0 0 0 0 0 0 0 0 0 0 0 0
0 0 0 0 0 0 0 0 0 0 0 0 0 0 0 0 0 0 0 0 0 0 0 0 0 0 0 0 0 0 0 0 0 0 0 0 0 0 0 0 0 0 0
0 0 0 0 0 0 0 0 0 0 0 0 0 0 0 0 0 0 0 0 0 0 0 0 0 0 0 0 0 0 0 0 0 0 0 0 0 0 0 0 0 0 0
0 0 0 0 0 0 0 0 0 0 0 0 0 0 0 0 0 0 0 0 0 0 0 0 0 0 0 0 0 0 0 0 0 0 0 0 0 0 0 0 0 0 0
0 0 0 0 0 0 0 0 0 0 0 0 0 0 0 0 0 0 0 0 0 0 0 0 0 0 0 0 0 0 0 0 0 0 0 0 0 0 0 0 0 0 0
0 0 0 0 0 0 0 0 0 0 0 0 0 0 0 0 0 0 0 0 0 0 0 0 0 0 0 0 0 0 0 0 0 0 0 0 0 0 0 0 0 0 0
0 0 0 0 0 0 0 0 0 0 0 0 0 0 0 0 0 0 0 0 0 0 0 0 0 0 0 0 0 0 0 0 0 0 0 0 0 0 0 0 0 0 0

GEFSMW_con_probscp_060.txt.gz
Probability
49 45 39 32 24 19 18 19 18 17 20 26 30 34 37 41 44 45 44 43 41 41 44 50 58 66 70 68 65 63 60 53 42 31 24 17 13 13 14 13 11 9 8
38 35 29 23 16 12 11 12 10 9 10 13 17 21 23 24 27 30 29 28 26 27 31 37 44 51 55 56 56 57 56 50 39 32 26 18 12 9 9 11 11 10 9
23 20 15 11 6 4 3 3 2 2 2 3 5 8 8 9 11 13 12 11 10 11 14 20 25 31 36 40 41 44 48 44 37 33 28 21 13 8 5 6 8 8 7
13 10 7 4 2 1 0 0 0 0 1 3 4 4 3 3 5 5 4 4 4 4 5 9 14 19 25 29 29 32 37 37 33 31 30 25 18 12 6 3 3 3 3
7 6 4 2 1 0 1 2 2 1 2 5 6 4 1 1 1 1 1 1 1 1 1 3 7 11 16 20 22 23 25 26 25 28 30 28 23 18 11 4 1 0 1
3 3 2 2 1 0 1 4 4 2 2 4 5 3 1 0 0 0 0 0 0 0 0 1 2 5 7 10 13 15 16 16 17 22 27 28 26 22 14 6 2 1 0
1 1 1 2 1 0 1 5 6 4 3 3 3 2 1 0 0 0 0 0 0 0 0 0 0 1 1 3 6 9 10 11 12 15 20 24 25 22 15 7 3 1 0
0 0 0 1 1 0 1 4 6 5 3 3 2 1 1 0 0 0 0 0 0 0 0 0 0 0 0 0 2 5 8 11 12 12 12 16 19 19 15 10 6 3 2
0 0 0 0 0 0 0 2 3 4 3 2 1 0 0 0 0 0 0 0 0 0 0 0 0 0 0 0 1 3 6 10 13 11 8 8 12 14 11 9 9 6 3
0 0 0 0 0 0 0 0 1 1 1 1 1 0 0 0 0 0 0 0 0 0 0 0 0 0 0 1 2 3 5 8 10 9 5 4 7 8 7 7 8 7 4
0 0 0 0 0 0 0 0 0 0 0 0 0 0 0 0 0 0 0 0 0 0 0 0 0 0 0 1 2 2 3 5 6 4 2 2 3 3 4 5 6 5 4
0 0 0 0 0 0 0 0 0 0 0 0 0 0 0 0 0 0 0 0 0 0 0 0 0 0 0 0 1 1 1 2 2 1 0 0 0 0 1 2 2 3 3
0 0 0 0 0 0 0 0 0 0 0 0 0 0 0 0 0 0 0 0 0 0 0 0 0 0 0 0 0 0 0 0 0 0 0 0 0 0 0 0 0 1 1
0 0 0 0 0 0 0 0 0 0 0 0 0 0 0 0 0 0 0 0 0 0 0 0 0 0 0 0 0 0 0 0 0 0 0 0 0 0 0 0 0 0 0
0 0 0 0 0 0 0 0 0 0 0 0 0 0 0 0 0 0 0 0 0 0 0 0 0 0 0 0 0 0 0 0 0 0 0 0 0 0 0 0 0 0 0
0 0 0 0 0 0 0 0 0 0 0 0 0 0 0 0 0 0 0 0 0 0 0 0 0 0 0 0 0 0 0 0 0 0 0 0 0 0 0 0 0 0 0
0 0 0 0 0 0 0 0 0 0 0 0 0 0 0 0 0 0 0 0 0 0 0 0 0 0 0 0 0 0 0 0 0 0 0 0 0 0 0 0 0 0 0
0 0 0 0 0 0 0 0 0 0 0 0 0 0 0 0 0 0 0 0 0 0 0 0 0 0 0 0 0 0 0 0 0 0 0 0 0 0 0 0 0 0 0
0 0 0 0 0 0 0 0 0 0 0 0 0 0 0 0 0 0 0 0 0 0 0 0 0 0 0 0 0 0 0 0 0 0 0 0 0 0 0 0 0 0 0
0 0 0 0 0 0 0 0 0 0 0 0 0 0 0 0 0 0 0 0 0 0 0 0 0 0 0 0 0 0 0 0 0 0 0 0 0 0 0 0 0 0 0
0 0 0 0 0 0 0 0 0 0 0 0 0 0 0 0 0 0 0 0 0 0 0 0 0 0 0 0 0 0 0 0 0 0 0 0 0 0 0 0 0 0 0
0 0 0 0 0 0 0 0 0 0 0 0 0 0 0 0 0 0 0 0 0 0 0 0 0 0 0 0 0 0 0 0 0 0 0 0 0 0 0 0 0 0 0
0 0 0 0 0 0 0 0 0 0 0 0 0 0 0 0 0 0 0 0 0 0 0 0 0 0 0 0 0 0 0 0 0 0 0 0 0 0 0 0 0 0 0
0 0 0 0 0 0 0 0 0 0 0 0 0 0 0 0 0 0 0 0 0 0 0 0 0 0 0 0 0 0 0 0 0 0 0 0 0 0 0 0 0 0 0
0 0 0 0 0 0 0 0 0 0 0 0 0 0 0 0 0 0 0 0 0 0 0 0 0 0 0 0 0 0 0 0 0 0 0 0 0 0 0 0 0 0 0
0 0 0 0 0 0 0 0 0 0 0 0 0 0 0 0 0 0 0 0 0 0 0 0 0 0 0 0 0 0 0 0 0 0 0 0 0 0 0 0 0 0 0